TimeEST,TemperatureF,Dew PointF,Humidity,Sea Level PressureIn,VisibilityMPH,Wind Direction,Wind SpeedMPH,Gust SpeedMPH,PrecipitationIn,Events,Conditions,WindDirDegrees,DateUTC
12:15 AM,44.6,35.6,71,30.19,10.0,Calm,Calm,-,N/A,,Clear,0,1999-01-01 05:15:00
12:35 AM,42.8,35.6,76,30.19,10.0,Calm,Calm,-,N/A,,Clear,0,1999-01-01 05:35:00
1:15 AM,42.8,35.6,76,30.18,10.0,Calm,Calm,-,N/A,,Clear,0,1999-01-01 06:15:00
1:35 AM,42.8,35.6,76,30.18,10.0,Calm,Calm,-,N/A,,Clear,0,1999-01-01 06:35:00
1:55 AM,42.8,35.6,76,30.18,10.0,Calm,Calm,-,N/A,,Clear,0,1999-01-01 06:55:00
2:35 AM,41.0,32.0,70,30.19,10.0,NW,6.9,-,N/A,,Clear,320,1999-01-01 07:35:00
2:55 AM,42.8,33.8,70,30.19,10.0,Calm,Calm,-,N/A,,Clear,0,1999-01-01 07:55:00
3:15 AM,42.8,33.8,70,30.19,10.0,Calm,Calm,-,N/A,,Clear,0,1999-01-01 08:15:00
3:35 AM,41.0,33.8,76,30.18,10.0,Calm,Calm,-,N/A,,Clear,0,1999-01-01 08:35:00
3:55 AM,41.0,33.8,76,30.18,10.0,Calm,Calm,-,N/A,,Clear,0,1999-01-01 08:55:00
4:15 AM,41.0,33.8,76,30.18,10.0,Calm,Calm,-,N/A,,Clear,0,1999-01-01 09:15:00
4:35 AM,39.2,32.0,75,30.18,10.0,Calm,Calm,-,N/A,,Clear,0,1999-01-01 09:35:00
4:55 AM,39.2,30.2,70,30.18,10.0,Calm,Calm,-,N/A,,Clear,0,1999-01-01 09:55:00
5:15 AM,39.2,30.2,70,30.18,10.0,Calm,Calm,-,N/A,,Clear,0,1999-01-01 10:15:00
5:55 AM,37.4,30.2,75,30.18,10.0,Calm,Calm,-,N/A,,Clear,0,1999-01-01 10:55:00
6:15 AM,39.2,30.2,70,30.19,10.0,Calm,Calm,-,N/A,,Clear,0,1999-01-01 11:15:00
7:15 AM,37.4,30.2,75,30.19,10.0,Calm,Calm,-,N/A,,Clear,0,1999-01-01 12:15:00
8:35 AM,48.2,35.6,62,30.22,10.0,NNW,5.8,-,N/A,,Clear,330,1999-01-01 13:35:00
8:55 AM,50.0,37.4,62,30.22,10.0,NNW,5.8,-,N/A,,Clear,340,1999-01-01 13:55:00
9:15 AM,53.6,39.2,58,30.23,10.0,NNW,8.1,-,N/A,,Clear,340,1999-01-01 14:15:00
9:35 AM,55.4,39.2,54,30.24,10.0,North,10.4,-,N/A,,Clear,350,1999-01-01 14:35:00
9:55 AM,57.2,41.0,55,30.24,10.0,North,10.4,-,N/A,,Clear,350,1999-01-01 14:55:00
10:15 AM,59.0,41.0,51,30.24,10.0,North,10.4,-,N/A,,Clear,350,1999-01-01 15:15:00
11:35 AM,60.8,44.6,55,30.25,10.0,North,12.7,-,N/A,,Clear,10,1999-01-01 16:35:00
11:55 AM,62.6,44.6,52,30.24,10.0,NNE,10.4,-,N/A,,Clear,30,1999-01-01 16:55:00
12:15 PM,62.6,44.6,52,30.22,10.0,NNE,11.5,-,N/A,,Clear,30,1999-01-01 17:15:00
12:35 PM,62.6,44.6,52,30.21,10.0,NNE,13.8,-,N/A,,Clear,20,1999-01-01 17:35:00
12:55 PM,62.6,44.6,52,30.21,10.0,NNE,13.8,-,N/A,,Clear,30,1999-01-01 17:55:00
1:15 PM,62.6,44.6,52,30.20,10.0,NNE,13.8,-,N/A,,Clear,30,1999-01-01 18:15:00
1:35 PM,62.6,44.6,52,30.19,10.0,NNE,12.7,-,N/A,,Clear,20,1999-01-01 18:35:00
2:35 PM,62.6,44.6,52,30.18,10.0,NE,11.5,-,N/A,,Clear,40,1999-01-01 19:35:00
2:55 PM,62.6,44.6,52,30.17,10.0,NE,12.7,-,N/A,,Clear,40,1999-01-01 19:55:00
3:35 PM,62.6,44.6,52,30.17,10.0,NE,11.5,-,N/A,,Clear,40,1999-01-01 20:35:00
3:55 PM,62.6,44.6,52,30.17,10.0,NE,10.4,-,N/A,,Clear,40,1999-01-01 20:55:00
4:15 PM,62.6,44.6,52,30.17,10.0,NE,11.5,-,N/A,,Clear,40,1999-01-01 21:15:00
4:35 PM,60.8,44.6,55,30.17,10.0,NE,12.7,-,N/A,,Clear,40,1999-01-01 21:35:00
4:55 PM,60.8,44.6,55,30.17,10.0,NE,12.7,-,N/A,,Clear,40,1999-01-01 21:55:00
5:35 PM,59.0,44.6,59,30.17,10.0,NE,10.4,-,N/A,,Clear,40,1999-01-01 22:35:00
5:55 PM,59.0,44.6,59,30.16,10.0,NE,10.4,-,N/A,,Partly Cloudy,50,1999-01-01 22:55:00
6:35 PM,60.8,44.6,55,30.16,10.0,NE,11.5,-,N/A,,Scattered Clouds,40,1999-01-01 23:35:00
7:15 PM,59.0,44.6,59,30.16,10.0,NE,11.5,-,N/A,,Clear,40,1999-01-02 00:15:00
7:35 PM,60.8,46.4,59,30.16,10.0,NE,11.5,-,N/A,,Clear,50,1999-01-02 00:35:00
8:15 PM,60.8,46.4,59,30.16,10.0,NE,10.4,-,N/A,,Clear,50,1999-01-02 01:15:00
8:35 PM,60.8,48.2,63,30.16,10.0,NE,10.4,-,N/A,,Clear,50,1999-01-02 01:35:00
9:15 PM,60.8,48.2,63,30.16,10.0,ENE,10.4,-,N/A,,Clear,60,1999-01-02 02:15:00
9:35 PM,62.6,50.0,63,30.16,10.0,NE,10.4,-,N/A,,Clear,50,1999-01-02 02:35:00
10:35 PM,62.6,51.8,68,30.15,10.0,East,8.1,-,N/A,,Clear,80,1999-01-02 03:35:00
10:55 PM,62.6,51.8,68,30.15,10.0,East,8.1,-,N/A,,Clear,90,1999-01-02 03:55:00
11:15 PM,62.6,51.8,68,30.14,10.0,East,9.2,-,N/A,,Clear,80,1999-01-02 04:15:00
11:55 PM,60.8,51.8,72,30.14,10.0,East,6.9,-,N/A,,Partly Cloudy,100,1999-01-02 04:55:00